| time (UTC) | temp F | wind direction | speed MPH | gust MPH | rain 1hr in | rain 24hr in | rain mn in | humidity % | barometer mb |
| 20260504070240 | 60 | 102 | 0.0 | 0.0 | 0.00 | 0.00 | 0.00 | 82 | 1011.5 |
| 20260504060239 | 54 | 275 | 0.0 | 0.0 | 0.00 | 0.00 | 0.00 | 85 | 1011.7 |
| 20260504050739 | 54 | 255 | 0.0 | 0.0 | 0.00 | 0.00 | 0.00 | 85 | 1011.8 |
| 20260504043239 | 54 | 219 | 0.0 | 0.0 | 0.00 | 0.00 | 0.00 | 85 | 1011.8 |
| 20260504040739 | 54 | 87 | 0.0 | 0.0 | 0.00 | 0.00 | 0.00 | 85 | 1011.8 |
| 20260504040238 | 54 | 87 | 0.0 | 0.0 | 0.00 | 0.00 | 0.00 | 85 | 1011.9 |
| 20260504033739 | 53 | 87 | 0.0 | 0.0 | 0.00 | 0.00 | 0.00 | 85 | 1012.0 |
| 20260504023738 | 53 | 87 | 0.0 | 0.0 | 0.00 | 0.00 | 0.00 | 84 | 1011.9 |
| 20260504023239 | 53 | 87 | 0.0 | 0.0 | 0.00 | 0.00 | 0.00 | 84 | 1012.0 |
| 20260504020738 | 53 | 87 | 0.0 | 0.0 | 0.00 | 0.00 | 0.00 | 84 | 1012.0 |
| 20260504013738 | 54 | 87 | 0.0 | 0.0 | 0.00 | 0.00 | 0.00 | 84 | 1012.1 |
| 20260504013239 | 55 | 87 | 0.0 | 0.0 | 0.00 | 0.00 | 0.00 | 84 | 1012.0 |
| 20260504003739 | 55 | 87 | 0.0 | 0.0 | 0.00 | 0.00 | 0.00 | 83 | 1012.5 |
| 20260504000241 | 55 | 87 | 0.0 | 0.0 | 0.00 | 0.00 | 0.00 | 84 | 1012.6 |
| 20260503233239 | 55 | 87 | 0.0 | 0.0 | 0.00 | 0.00 | 0.00 | 84 | 1012.6 |
| 20260503223239 | 55 | 87 | 0.0 | 0.0 | 0.00 | 0.00 | 0.00 | 83 | 1012.7 |
| 20260503220239 | 56 | 87 | 0.0 | 0.0 | 0.00 | 0.00 | 0.00 | 83 | 1012.7 |
| 20260503213738 | 57 | 87 | 0.0 | 0.0 | 0.00 | 0.00 | 0.00 | 82 | 1012.7 |
| 20260503213238 | 57 | 87 | 0.0 | 0.0 | 0.00 | 0.00 | 0.00 | 82 | 1012.7 |
| 20260503210738 | 57 | 87 | 0.0 | 0.0 | 0.00 | 0.00 | 0.00 | 82 | 1013.0 |
| 20260503210238 | 57 | 87 | 0.0 | 0.0 | 0.00 | 0.00 | 0.00 | 81 | 1013.0 |
| 20260503203738 | 58 | 87 | 0.0 | 0.0 | 0.00 | 0.00 | 0.00 | 80 | 1013.0 |
| 20260503200238 | 58 | 99 | 0.0 | 0.0 | 0.00 | 0.00 | 0.00 | 79 | 1013.0 |
| 20260503193738 | 58 | 99 | 0.0 | 0.0 | 0.00 | 0.00 | 0.00 | 78 | 1012.9 |
| 20260503190737 | 59 | 98 | 0.0 | 0.0 | 0.00 | 0.00 | 0.00 | 78 | 1012.4 |
| 20260503190238 | 59 | 102 | 0.0 | 0.0 | 0.00 | 0.00 | 0.00 | 78 | 1012.4 |
| 20260503183738 | 59 | 94 | 0.0 | 0.0 | 0.00 | 0.00 | 0.00 | 78 | 1012.7 |
| 20260503183237 | 59 | 83 | 0.0 | 5.0 | 0.00 | 0.00 | 0.00 | 78 | 1012.5 |
| 20260503180238 | 60 | 105 | 1.0 | 9.0 | 0.00 | 0.00 | 0.00 | 79 | 1012.4 |
| 20260503173737 | 61 | 142 | 0.0 | 5.0 | 0.00 | 0.00 | 0.00 | 78 | 1012.4 |
| 20260503170237 | 62 | 124 | 2.0 | 12.0 | 0.00 | 0.00 | 0.00 | 75 | 1012.1 |
| 20260503150738 | 63 | 123 | 1.0 | 3.0 | 0.00 | 0.00 | 0.00 | 68 | 1012.1 |
| 20260503150237 | 63 | 102 | 1.0 | 6.0 | 0.00 | 0.00 | 0.00 | 67 | 1012.1 |
| 20260503140237 | 65 | 115 | 0.0 | 0.0 | 0.00 | 0.00 | 0.00 | 62 | 1012.7 |
| 20260503110737 | 64 | 122 | 0.0 | 0.0 | 0.00 | 0.00 | 0.00 | 68 | 1014.3 |
| 20260503110236 | 65 | 108 | 0.0 | 0.0 | 0.00 | 0.00 | 0.00 | 68 | 1014.2 |